Change the Weather History Date:

Monday, May 12, 2014

  Actual Average Record
Temperature  
Mean Temperature 62 °F -  
Max Temperature 84 °F 68 °F 85 °F (1991)
Min Temperature 41 °F 42 °F 27 °F (1962)
Degree Days  
Heating Degree Days 2    
Growing Degree Days 12 (Base 50)    
Moisture  
Dew Point 38 °F    
Average Humidity 44    
Maximum Humidity 82    
Minimum Humidity 17    
Precipitation  
Precipitation 0.00 in - - ()
Sea Level Pressure  
Sea Level Pressure 30.03 in    
Wind  
Wind Speed 3 mph (NNW)    
Max Wind Speed 14 mph    
Max Gust Speed 20 mph    
Visibility 10 miles    
Events      
Averages and records for this station are not official NWS values.
T = Trace of Precipitation, MM = Missing Value Source: NWS Daily Summary

Daily Weather History Graph

Daily Weather History Graph

Search for Another Location

Airport or City:

Trip Planner

Search our weather history database for the weather conditions in past years. The results will help you decide how hot, cold, wet, or windy it might be!

Date:

Astronomy

May. 12, 2014 Rise Set
Actual Time 5:27 AM EDT 8:04 PM EDT
Civil Twilight 4:54 AM EDT 8:37 PM EDT
Nautical Twilight 4:13 AM EDT 9:18 PM EDT
Astronomical Twilight 3:27 AM EDT 10:05 PM EDT
Moon 5:55 PM EDT (5/12) 4:10 AM EDT (5/12)
Length of Visible Light 15h 42m
Length of Day
14h 36m
Waxing Gibbous, 95% of the Moon is Illuminated
May 12
Waxing Gibbous
May 14
Full
May 21
Last Quarter
May 28
New
Jun 5
First Quarter

Hourly Weather History & Observations

Time (EDT) Temp. Windchill Dew Point Humidity Pressure Visibility Wind Dir Wind Speed Gust Speed Precip Events Conditions
12:53 AM 48.9 °F - 37.9 °F 66% 30.02 in 10.0 mi Calm Calm - N/A   Clear
1:53 AM 48.9 °F - 37.9 °F 66% 30.03 in 10.0 mi Calm Calm - N/A   Clear
2:53 AM 45.0 °F - 37.9 °F 76% 30.03 in 10.0 mi Calm Calm - N/A   Clear
3:53 AM 44.1 °F 42.5 °F 37.0 °F 76% 30.05 in 10.0 mi South 3.5 mph - N/A   Clear
4:53 AM 42.1 °F - 37.0 °F 82% 30.06 in 10.0 mi Calm Calm - N/A   Clear
5:53 AM 41.0 °F - 36.0 °F 82% 30.07 in 10.0 mi Calm Calm - N/A   Clear
6:53 AM 46.9 °F - 41.0 °F 80% 30.07 in 10.0 mi South 3.5 mph - N/A   Clear
7:53 AM 54.0 °F - 41.0 °F 62% 30.08 in 10.0 mi Calm Calm - N/A   Clear
8:53 AM 62.1 °F - 42.1 °F 48% 30.07 in 10.0 mi Calm Calm - N/A   Clear
10:53 AM 73.0 °F - 35.1 °F 25% 30.05 in 10.0 mi Calm Calm - N/A   Clear
11:53 AM 75.9 °F - 35.1 °F 23% 30.03 in 10.0 mi SSW 5.8 mph - N/A   Partly Cloudy
12:53 PM 79.0 °F - 36.0 °F 21% 30.01 in 10.0 mi Variable 4.6 mph - N/A   Partly Cloudy
1:53 PM 82.9 °F - 36.0 °F 19% 30.00 in 10.0 mi WSW 13.8 mph 18.4 mph N/A   Partly Cloudy
2:53 PM 84.0 °F - 36.0 °F 18% 29.99 in 10.0 mi Variable 5.8 mph 17.3 mph N/A   Partly Cloudy
3:53 PM 84.0 °F - 35.1 °F 17% 29.96 in 10.0 mi West 10.4 mph 19.6 mph N/A   Partly Cloudy
4:53 PM 84.0 °F - 36.0 °F 18% 29.96 in 10.0 mi NNW 8.1 mph 16.1 mph N/A   Partly Cloudy
5:53 PM 82.9 °F - 37.0 °F 19% 29.97 in 10.0 mi North 10.4 mph - N/A   Partly Cloudy
7:53 PM 75.0 °F - 39.0 °F 27% 30.01 in 10.0 mi North 10.4 mph - N/A   Mostly Cloudy
8:53 PM 71.1 °F - 39.9 °F 32% 30.03 in 10.0 mi NE 6.9 mph - N/A   Scattered Clouds
9:53 PM 68.0 °F - 39.0 °F 35% 30.06 in 10.0 mi NE 9.2 mph - N/A   Scattered Clouds
11:53 PM 64.0 °F - 39.9 °F 41% 30.08 in 10.0 mi NE 5.8 mph - N/A   Mostly Cloudy